CAPE
6 6 5 5 2 0 0 2 0 3 3 2 1 1 0 2 2 1 0 0 0 0 0 0 0 0 0 0 0 0 0 0 0 0 0 0 0 0 0 0 0 0 0 0 0 0 0
1 4 4 4 2 1 2 2 2 2 2 0 0 0 0 0 0 0 0 0 0 0 0 0 0 0 0 0 0 0 0 0 0 0 0 0 0 0 0 0 0 0 0 0 0 0 0
4 5 2 2 1 1 2 2 3 1 0 0 0 0 0 0 0 0 0 0 0 0 0 0 0 0 0 0 0 0 0 0 0 0 0 0 0 0 0 0 0 0 0 0 0 0 0
4 11 2 0 0 0 3 3 1 1 0 0 0 0 0 0 0 0 0 0 0 0 0 0 0 0 0 0 0 0 0 0 0 0 0 0 0 0 0 0 0 0 0 0 0 0 0
4 4 2 1 0 1 3 2 1 0 0 0 0 0 0 0 0 0 0 0 0 0 0 0 0 0 0 0 0 0 0 0 0 0 0 0 0 0 0 0 0 0 0 0 0 0 0
1 1 1 0 1 3 2 1 0 0 0 0 0 0 0 0 0 0 0 0 0 0 0 0 0 0 0 0 0 0 0 0 0 0 0 0 0 0 0 0 0 0 0 0 0 0 0
5 0 1 1 2 3 1 1 1 0 0 0 0 0 0 0 0 0 0 0 0 0 0 0 0 0 0 0 0 0 0 0 0 0 0 0 0 0 0 0 0 0 0 0 0 0 0
1 1 3 3 2 2 3 1 1 0 0 0 0 0 0 0 0 0 0 0 0 0 0 0 0 0 0 0 0 0 0 0 0 0 0 0 0 0 0 0 0 0 0 0 0 0 0
0 4 2 3 3 2 2 2 1 1 0 0 0 0 0 0 0 0 0 0 0 0 0 0 0 0 0 0 0 0 0 0 0 0 0 0 0 0 0 0 0 0 0 0 0 0 0
2 4 5 4 3 3 2 2 0 0 0 0 0 0 0 0 0 0 0 0 0 0 0 0 0 0 0 0 0 0 0 0 0 0 0 0 0 0 0 0 0 0 0 0 0 0 0
6 9 6 4 5 3 2 2 1 0 0 0 0 0 0 0 0 0 0 0 0 0 0 0 0 0 0 0 0 0 0 0 0 0 0 0 0 0 0 0 0 0 0 0 0 0 0
2 1 4 7 7 4 2 2 1 0 0 0 0 0 0 0 0 0 0 0 0 0 0 0 0 0 0 0 0 0 0 0 0 0 0 0 0 0 0 0 0 0 0 0 0 0 0
14 2 3 4 7 5 4 1 1 0 0 0 0 0 0 0 0 0 0 0 0 0 0 0 0 0 0 0 0 0 0 0 0 0 0 0 0 0 0 0 0 0 0 0 0 0 0
7 7 7 3 8 5 3 2 1 0 0 0 0 0 0 0 0 0 0 0 0 0 0 0 0 0 0 0 0 0 0 0 0 0 0 0 0 0 0 0 0 0 0 0 0 0 0
27 24 19 5 7 5 4 2 0 0 0 0 0 0 0 0 0 0 0 0 0 0 0 0 0 0 0 0 0 0 0 0 0 0 0 0 0 0 0 0 0 0 0 0 0 0 0
17 17 16 13 7 7 5 1 0 0 0 0 0 0 0 0 0 0 0 0 0 0 0 0 0 0 0 0 0 0 0 0 0 0 0 0 0 0 0 0 0 0 0 0 0 0 0
9 4 10 5 4 8 5 0 0 0 0 0 0 0 0 0 0 0 0 1 0 0 0 0 0 0 0 0 0 0 0 0 0 0 0 0 0 0 0 0 0 0 0 0 0 0 0
7 3 1 8 7 7 7 1 0 0 0 0 0 0 0 0 0 0 0 0 0 0 0 0 0 0 0 0 0 0 0 0 0 0 0 0 0 0 0 0 0 0 0 0 0 0 0
8 3 2 3 4 4 5 1 0 0 0 0 0 0 0 0 0 0 0 0 0 0 0 0 0 0 0 0 0 0 0 0 0 0 0 0 0 0 0 0 0 0 0 0 0 0 0
3 3 5 2 5 3 1 3 0 0 0 0 0 0 0 0 0 0 0 0 0 0 0 0 0 0 0 0 0 0 0 0 0 0 0 0 0 0 0 0 0 0 0 0 0 0 0
7 6 6 0 4 4 1 1 0 0 0 0 0 0 0 0 0 0 0 0 0 0 0 0 0 0 0 0 0 0 0 0 0 0 0 0 0 0 0 0 0 0 0 0 0 0 0
11 10 6 4 6 5 2 0 0 0 0 0 0 0 0 0 0 0 0 0 0 0 0 0 0 0 0 0 0 0 0 0 0 0 0 0 0 0 0 0 0 0 0 0 0 0 0
12 3 6 4 5 5 5 3 2 0 0 0 0 0 0 0 0 0 0 0 0 0 0 0 0 0 0 0 0 0 0 0 0 0 0 0 0 0 0 0 0 0 0 0 0 0 0
15 9 9 10 6 4 3 3 3 3 0 0 0 0 0 0 0 0 0 0 0 0 0 0 0 0 0 0 0 0 0 0 0 0 0 0 0 0 0 0 0 0 0 0 0 0 0
6 4 7 5 14 6 4 2 3 5 1 0 0 0 0 0 0 0 0 0 0 0 0 0 0 0 0 0 0 0 0 0 0 0 0 0 0 0 0 0 0 0 0 0 0 0 0
4 7 4 9 14 11 4 3 1 2 4 0 0 0 0 0 0 0 0 0 0 0 0 0 0 0 0 0 0 0 0 0 0 0 0 0 0 0 0 0 0 0 0 0 0 0 0
6 5 4 4 2 2 4 4 3 3 5 0 0 0 0 0 0 0 0 0 0 0 0 0 0 0 0 0 0 0 0 0 0 0 0 0 0 0 0 0 0 0 0 0 0 0 0
8 8 10 6 5 5 5 6 7 2 4 0 0 0 0 0 0 0 0 0 0 0 0 0 0 0 0 0 0 0 0 0 0 0 0 0 0 0 0 0 0 0 0 0 0 0 0
9 5 1 3 5 7 8 0 4 3 5 11 0 0 0 0 0 0 0 0 0 0 0 0 0 0 0 0 0 0 0 0 0 0 0 0 0 0 0 0 0 0 0 0 0 0 0
CIN
-0 -0 -1 -0 -1 -1 -0 -0 -0 -0 -0 -0 -0 -0 -0 -0 -0 -0 -0 -0 -0 -0 -0 -0 -0 -0 -0 -0 -0 -0 -0 -0 -0 -0 -0 -0 -0 -0 -0 -0 -0 -0 -0 -0 -0 -0 -0
-0 -0 -0 -0 -1 -1 -0 -0 -0 -0 -0 -0 -0 -0 -0 -0 -0 -0 -0 -0 -0 -0 -0 -0 -0 -0 -0 -0 -0 -0 -0 -0 -0 -0 -0 -0 -0 -0 -0 -0 -0 -0 -0 -0 -0 -0 -0
-0 -1 -3 -0 -0 -0 -0 -0 -0 -0 -0 -0 -0 -0 -0 -0 -0 -0 -0 -0 -0 -0 -0 -0 -0 -0 -0 -0 -0 -0 -0 -0 -0 -0 -0 -0 -0 -0 -0 -0 -0 -0 -0 -0 -0 -0 -0
-0 -0 -2 -0 -1 -0 -0 -0 -0 -0 -0 -0 -0 -0 -0 -0 -0 -0 -0 -0 -0 -0 -0 -0 -0 -0 -0 -0 -0 -0 -0 -0 -0 -0 -0 -0 -0 -0 -0 -0 -0 -0 -0 -0 -0 -0 -0
-0 -0 -0 -0 -1 -0 -0 -0 -0 -0 -0 -0 -0 -0 -0 -0 -0 -0 -0 -0 -0 -0 -0 -0 -0 -0 -0 -0 -0 -0 -0 -0 -0 -0 -0 -0 -0 -0 -0 -0 -0 -0 -0 -0 -0 -0 -0
-0 -0 -0 -0 -0 -0 -0 -0 -0 -0 -0 -0 -0 -0 -0 -0 -0 -0 -0 -0 -0 -0 -0 -0 -0 -0 -0 -0 -0 -0 -0 -0 -0 -0 -0 -0 -0 -0 -0 -0 -0 -0 -0 -0 -0 -0 -0
-0 -1 -0 -0 -0 -0 -0 -0 -0 -0 -0 -0 -0 -0 -0 -0 -0 -0 -0 -0 -0 -0 -0 -0 -0 -0 -0 -0 -0 -0 -0 -0 -0 -0 -0 -0 -0 -0 -0 -0 -0 -0 -0 -0 -0 -0 -0
-0 -0 -0 -0 -0 -0 -0 -0 -0 -0 -0 -0 -0 -0 -0 -0 -0 -0 -0 -0 -0 -0 -0 -0 -0 -0 -0 -0 -0 -0 -0 -0 -0 -0 -0 -0 -0 -0 -0 -0 -0 -0 -0 -0 -0 -0 -0
-0 -0 -0 -0 -0 -0 -0 -0 -0 -0 -0 -0 -0 -0 -0 -0 -0 -0 -0 -0 -0 -0 -0 -0 -0 -0 -0 -0 -0 -0 -0 -0 -0 -0 -0 -0 -0 -0 -0 -0 -0 -0 -0 -0 -0 -0 -0
-0 -1 -0 -0 -0 -0 -0 -0 -0 -0 -0 -0 -0 -0 -0 -0 -0 -0 -0 -0 -0 -0 -0 -0 -0 -0 -0 -0 -0 -0 -0 -0 -0 -0 -0 -0 -0 -0 -0 -0 -0 -0 -0 -0 -0 -0 -0
-1 -0 -0 -0 -0 -0 -0 -0 -0 -0 -0 -0 -0 -0 -0 -0 -0 -0 -0 -0 -0 -0 -0 -0 -0 -0 -0 -0 -0 -0 -0 -0 -0 -0 -0 -0 -0 -0 -0 -0 -0 -0 -0 -0 -0 -0 -0
-1 -1 -0 -0 -0 -0 -0 -0 -0 -0 -0 -0 -0 -0 -0 -0 -0 -0 -0 -0 -0 -0 -0 -0 -0 -0 -0 -0 -0 -0 -0 -0 -0 -0 -0 -0 -0 -0 -0 -0 -0 -0 -0 -0 -0 -0 -0
-0 -0 -0 -0 -0 -0 -0 -0 -0 -0 -0 -0 -0 -0 -0 -0 -0 -0 -0 -0 -0 -0 -0 -0 -0 -0 -0 -0 -0 -0 -0 -0 -0 -0 -0 -0 -0 -0 -0 -0 -0 -0 -0 -0 -0 -0 -0
-1 -0 -0 -0 -0 -0 -0 -0 -0 -0 -0 -0 -0 -0 -0 -0 -0 -0 -0 -0 -0 -0 -0 -0 -0 -0 -0 -0 -0 -0 -0 -0 -0 -0 -0 -0 -0 -0 -0 -0 -0 -0 -0 -0 -0 -0 -0
-0 -0 -0 -0 -0 -0 -0 -0 -0 -0 -0 -0 -0 -0 -0 -0 -0 -0 -0 -0 -0 -0 -0 -0 -0 -0 -0 -0 -0 -0 -0 -0 -0 -0 -0 -0 -0 -0 -0 -0 -0 -0 -0 -0 -0 -0 -0
-0 -0 -0 -0 -0 -0 -0 -0 -0 -0 -0 -0 -0 -0 -0 -0 -0 -0 -0 -0 -0 -0 -0 -0 -0 -0 -0 -0 -0 -0 -0 -0 -0 -0 -0 -0 -0 -0 -0 -0 -0 -0 -0 -0 -0 -0 -0
-0 -0 -0 -0 -0 -0 -0 -0 -0 -0 -0 -0 -0 -0 -0 -0 -0 -0 -0 -0 -0 -0 -0 -0 -0 -0 -0 -0 -0 -0 -0 -0 -0 -0 -0 -0 -0 -0 -0 -0 -0 -0 -0 -0 -0 -0 -0
-2 -1 -0 -0 -0 -0 -0 -0 -0 -0 -0 -0 -0 -0 -0 -0 -0 -0 -0 -0 -0 -0 -0 -0 -0 -0 -0 -0 -0 -0 -0 -0 -0 -0 -0 -0 -0 -0 -0 -0 -0 -0 -0 -0 -0 -0 -0
-1 -0 -0 -0 -0 -0 -0 -0 -0 -0 -0 -0 -0 -0 -0 -0 -0 -0 -0 -0 -0 -0 -0 -0 -0 -0 -0 -0 -0 -0 -0 -0 -0 -0 -0 -0 -0 -0 -0 -0 -0 -0 -0 -0 -0 -0 -0
-1 -0 -0 -0 -0 -0 -0 -0 -0 -0 -0 -0 -0 -0 -0 -0 -0 -0 -0 -0 -0 -0 -0 -0 -0 -0 -0 -0 -0 -0 -0 -0 -0 -0 -0 -0 -0 -0 -0 -0 -0 -0 -0 -0 -0 -0 -0
-1 -0 -1 -0 -0 -0 -0 -0 -0 -0 -0 -0 -0 -0 -0 -0 -0 -0 -0 -0 -0 -0 -0 -0 -0 -0 -0 -0 -0 -0 -0 -0 -0 -0 -0 -0 -0 -0 -0 -0 -0 -0 -0 -0 -0 -0 -0
-1 -0 -1 -0 -0 -0 -0 -0 -0 -0 -0 -0 -0 -0 -0 -0 -0 -0 -0 -0 -0 -0 -0 -0 -0 -0 -0 -0 -0 -0 -0 -0 -0 -0 -0 -0 -0 -0 -0 -0 -0 -0 -0 -0 -0 -0 -0
-0 -1 -0 -0 -0 -0 -0 -0 -0 -0 -0 -0 -0 -0 -0 -0 -0 -0 -0 -0 -0 -0 -0 -0 -0 -0 -0 -0 -0 -0 -0 -0 -0 -0 -0 -0 -0 -0 -0 -0 -0 -0 -0 -0 -0 -0 -0
-0 -0 -0 -0 -0 -0 -0 -0 -0 -0 -0 -0 -0 -0 -0 -0 -0 -0 -0 -0 -0 -0 -0 -0 -0 -0 -0 -0 -0 -0 -0 -0 -0 -0 -0 -0 -0 -0 -0 -0 -0 -0 -0 -0 -0 -0 -0
-1 -0 -1 -0 -0 -0 -0 -0 -0 -0 -0 -0 -0 -0 -0 -0 -0 -0 -0 -0 -0 -0 -0 -0 -0 -0 -0 -0 -0 -0 -0 -0 -0 -0 -0 -0 -0 -0 -0 -0 -0 -0 -0 -0 -0 -0 -0
-0 -0 -0 -0 -1 -0 -1 -0 -0 -0 -0 -0 -0 -0 -0 -0 -0 -0 -0 -0 -0 -0 -0 -0 -0 -0 -0 -0 -0 -0 -0 -0 -0 -0 -0 -0 -0 -0 -0 -0 -0 -0 -0 -0 -0 -0 -0
-0 -0 -1 -0 -0 -0 -0 -0 -0 -0 -0 -0 -0 -0 -0 -0 -0 -0 -0 -0 -0 -0 -0 -0 -0 -0 -0 -0 -0 -0 -0 -0 -0 -0 -0 -0 -0 -0 -0 -0 -0 -0 -0 -0 -0 -0 -0
-1 -1 -0 -0 -0 -0 -0 -0 -0 -0 -0 -0 -0 -0 -0 -0 -0 -0 -0 -0 -0 -0 -0 -0 -0 -0 -0 -0 -0 -0 -0 -0 -0 -0 -0 -0 -0 -0 -0 -0 -0 -0 -0 -0 -0 -0 -0
-0 -0 -0 -0 -0 -0 -0 -1 -1 -0 -3 -1 -0 -0 -0 -0 -0 -0 -0 -0 -0 -0 -0 -0 -0 -0 -0 -0 -0 -0 -0 -0 -0 -0 -0 -0 -0 -0 -0 -0 -0 -0 -0 -0 -0 -0 -0
Wind_Speed
28 28 28 27 27 27 26 26 25 24 23 21 19 18 17 17 17 18 20 22 23 23 23 21 19 17 16 17 21 18 6 4 2 6 11 14 13 14 16 18 20 25 27 27 28 29 29
28 28 28 28 28 28 27 27 26 25 25 23 22 21 20 19 18 18 19 21 22 22 21 18 16 15 17 20 18 13 5 4 5 9 12 13 15 15 18 20 20 20 24 27 27 29 26
30 29 29 29 28 28 28 28 27 26 26 25 24 23 22 21 20 19 19 20 21 20 17 15 14 16 19 23 17 11 10 13 8 10 12 14 13 16 17 23 22 24 29 30 30 26 23
30 29 29 30 30 29 29 29 29 28 27 27 26 25 24 23 22 21 21 20 18 15 13 12 13 16 21 19 17 12 13 12 11 11 13 13 13 17 20 21 23 24 24 26 21 19 20
30 30 30 31 31 31 31 31 30 30 29 29 28 27 26 25 24 22 21 18 13 11 11 10 15 17 21 17 16 14 15 12 9 12 13 11 13 18 19 23 27 23 28 26 28 20 20
30 31 31 32 32 32 32 32 32 31 31 30 30 28 27 26 25 23 20 15 12 12 11 14 17 19 20 17 15 11 14 10 13 10 14 17 18 20 20 20 29 25 26 26 26 22 22
31 32 33 33 33 34 34 33 33 33 32 32 31 30 29 28 26 24 16 14 16 18 17 17 16 16 15 14 12 12 11 12 13 15 20 19 23 24 23 22 26 26 29 33 30 28 34
32 33 34 34 34 34 35 35 34 34 34 33 33 32 31 29 27 24 11 17 17 17 22 21 23 22 18 17 17 14 11 14 16 20 18 23 30 27 24 25 28 31 36 39 37 29 26
33 34 35 35 35 35 35 35 35 35 34 34 33 33 32 30 27 16 16 15 16 16 22 21 18 19 20 18 20 16 11 16 19 20 21 27 25 21 22 26 30 32 34 36 38 36 34
34 35 35 35 36 36 36 36 36 36 35 34 34 33 32 29 18 16 17 17 16 16 23 21 19 18 16 15 18 17 13 17 20 24 22 27 26 28 27 32 28 38 28 32 34 34 38
33 34 35 35 36 36 36 36 36 36 35 35 34 32 30 20 17 15 15 15 14 16 26 18 17 15 13 14 13 17 14 17 20 20 19 23 22 23 25 25 20 28 24 26 29 33 37
33 34 34 35 36 36 36 36 36 36 35 34 31 28 20 15 16 15 15 13 15 19 26 19 17 16 14 16 15 14 13 15 16 21 23 27 25 27 24 23 21 24 26 28 29 30 42
33 34 35 36 35 35 36 36 36 35 34 32 28 24 19 16 16 17 13 13 18 23 20 21 19 19 15 18 17 17 17 19 23 26 27 28 26 25 25 28 25 26 30 39 40 38 44
33 33 34 35 35 35 35 36 35 35 33 28 23 20 18 18 19 13 11 16 22 20 19 20 19 17 18 20 19 19 19 23 24 25 29 32 33 24 22 25 27 26 25 33 43 42 40
33 34 35 35 36 36 35 35 35 34 30 23 18 17 20 22 15 11 13 20 20 20 20 22 19 19 19 19 20 20 21 23 24 26 28 31 30 25 24 26 23 25 29 27 37 39 46
34 34 35 35 35 36 36 36 34 32 26 17 13 16 19 19 12 10 14 17 17 18 18 18 20 20 20 21 21 21 21 22 22 23 22 26 34 28 28 27 25 27 27 33 31 43 48
33 34 34 34 35 36 36 35 34 31 24 15 15 14 18 15 10 11 13 14 13 17 17 18 18 19 18 20 20 21 21 21 23 24 23 27 27 31 29 28 32 33 33 31 32 35 47
33 33 34 34 34 35 35 35 34 28 20 15 14 14 18 13 12 13 14 14 14 17 18 17 16 17 18 19 20 21 21 21 24 24 27 26 29 37 34 27 24 26 30 31 38 42 40
34 34 34 34 35 34 34 34 33 27 19 16 15 15 18 15 14 13 13 14 16 18 19 18 18 18 19 20 22 20 20 18 24 25 26 28 30 39 33 29 27 30 30 31 32 34 42
34 34 34 34 34 34 33 32 30 27 20 16 15 15 17 16 14 12 13 17 17 19 19 18 18 19 20 21 23 23 23 23 27 28 28 25 29 33 43 38 36 39 39 36 36 44 46
32 32 34 33 33 33 32 31 32 30 22 16 17 16 16 16 18 15 16 18 18 20 19 20 20 21 22 24 26 27 27 30 30 30 27 26 36 35 35 36 37 39 41 40 40 38 45
31 31 31 32 32 32 31 32 33 32 21 16 15 15 15 15 17 18 20 19 19 20 20 21 21 22 24 26 27 30 30 29 30 28 27 29 36 37 41 37 36 39 36 36 36 36 38
29 30 30 30 31 31 31 31 32 33 24 17 17 16 16 19 18 18 19 18 20 18 20 20 22 24 26 25 25 26 26 27 28 31 32 33 34 37 43 34 34 42 36 35 34 33 35
30 29 29 30 30 29 30 31 31 31 28 21 20 18 18 19 19 19 16 18 19 21 21 20 22 24 22 26 25 24 24 24 24 28 23 28 30 31 38 35 48 32 26 29 33 32 31
30 29 29 30 29 30 31 31 31 30 29 26 24 20 19 19 17 18 18 20 20 21 22 23 24 23 24 25 27 30 30 30 28 28 24 21 26 32 36 38 37 34 31 32 34 34 29
29 30 29 31 29 30 30 30 30 30 30 24 26 22 20 18 21 19 20 21 23 25 25 24 23 22 24 26 29 33 35 33 31 29 25 23 26 30 34 41 45 32 27 27 25 38 27
31 32 31 30 30 31 32 32 32 31 30 26 25 26 21 21 19 20 21 22 21 23 25 25 25 25 26 28 31 32 33 27 32 32 31 30 30 33 33 36 32 25 26 22 34 32 29
33 32 32 32 32 32 33 33 32 32 31 27 24 27 22 21 20 19 20 21 22 23 25 24 24 27 27 29 29 28 28 27 28 26 28 29 30 29 28 32 35 24 24 29 25 25 31
34 34 34 34 34 34 34 34 34 33 32 29 25 23 22 20 18 19 19 20 20 19 21 23 23 24 24 25 24 24 26 25 24 29 22 26 23 26 25 26 23 24 26 21 24 31 35
Wind_Direction
338 335 333 331 329 327 326 322 322 319 313 307 303 300 297 292 278 260 248 242 241 243 250 262 273 278 284 286 275 286 335 41 351 292 274 266 265 273 275 276 279 267 261 269 259 259 259
336 334 331 329 328 326 324 321 317 315 314 310 307 304 304 300 290 277 263 254 251 251 262 278 284 286 284 278 284 294 320 335 319 289 278 272 273 276 280 279 283 288 277 270 275 263 284
331 332 329 328 326 324 321 319 317 312 311 310 307 306 305 302 300 291 279 271 266 269 282 293 295 287 283 265 287 295 290 284 310 299 286 279 290 282 288 279 288 289 279 279 279 287 291
331 329 327 326 324 322 319 316 314 312 308 307 306 305 304 303 302 294 283 277 291 300 306 307 303 292 280 281 287 288 284 293 299 308 301 293 292 291 288 291 293 291 296 288 299 308 305
328 326 327 324 321 319 317 314 311 309 308 305 302 301 302 301 300 297 295 303 332 340 332 325 299 293 282 292 286 283 280 294 306 307 309 314 299 287 293 287 286 292 284 290 294 308 306
331 326 323 321 321 315 314 312 310 307 305 304 301 298 297 298 298 296 304 338 5 344 330 307 296 291 286 294 294 289 286 296 296 304 296 292 291 285 289 287 281 288 290 293 295 305 305
329 328 323 320 317 316 313 310 308 306 303 301 299 297 294 293 292 290 319 329 315 307 299 296 302 298 303 302 303 292 293 295 297 294 280 289 280 281 286 286 288 293 290 288 294 299 296
328 327 328 323 319 316 314 312 306 304 302 299 297 295 292 290 289 290 338 313 313 314 293 294 285 283 294 295 296 295 293 291 290 284 289 286 278 287 294 291 288 287 286 286 292 301 299
327 324 323 322 320 317 314 312 310 304 300 299 296 294 291 288 286 314 314 319 322 329 299 298 303 297 289 291 291 290 287 291 289 286 285 280 291 307 298 293 288 289 289 290 290 296 297
327 325 324 323 321 319 315 313 310 308 303 296 296 294 290 289 304 306 305 312 319 326 295 296 298 302 305 303 293 299 290 295 292 289 289 290 293 292 292 290 292 288 298 294 294 296 291
329 327 327 323 321 317 317 314 311 308 304 303 298 295 294 301 306 305 310 316 326 319 286 303 307 324 325 306 313 303 304 296 291 295 298 295 301 303 299 300 304 298 307 302 298 295 294
333 330 328 326 325 321 316 314 311 307 304 302 299 304 312 312 304 309 311 322 315 294 283 298 311 309 309 310 314 321 313 316 313 298 296 293 301 301 302 307 305 308 305 305 302 298 289
336 334 332 331 327 323 320 316 311 309 305 300 298 308 313 311 299 302 312 311 292 283 301 296 299 304 307 302 304 306 304 302 296 294 294 298 299 303 306 301 304 300 299 294 292 289 288
333 333 333 333 328 325 323 320 316 312 308 298 298 317 321 316 298 303 302 292 284 297 296 304 303 305 298 302 305 303 300 297 312 303 297 294 293 304 314 309 303 303 299 292 290 290 292
341 339 339 337 336 332 327 323 320 316 311 302 312 322 326 308 307 303 290 282 289 293 298 297 302 298 299 304 304 304 303 301 307 313 299 298 296 307 309 313 312 306 299 305 294 295 292
339 339 339 340 337 336 331 329 324 321 317 314 330 327 329 309 314 307 294 292 297 305 306 307 298 305 299 304 304 306 303 310 308 318 317 307 297 306 307 310 309 306 309 298 300 294 291
340 341 342 339 339 337 335 333 330 328 321 327 326 329 320 307 324 322 301 305 309 313 312 311 307 307 311 307 309 306 306 311 313 314 319 313 303 303 311 310 305 304 302 303 301 297 292
343 343 346 344 340 338 337 336 335 328 309 321 329 325 305 303 324 320 312 315 319 316 325 325 326 320 314 315 311 309 306 310 318 320 312 317 308 301 304 314 324 312 306 307 295 295 297
346 346 346 345 342 337 335 335 334 325 312 304 322 320 305 303 319 321 327 325 326 319 321 318 317 321 319 315 309 313 314 321 322 320 316 316 308 302 304 308 314 311 314 313 309 303 296
352 352 347 344 343 341 336 333 331 325 311 327 321 319 321 335 325 328 326 319 319 326 326 328 323 324 319 315 316 311 311 315 317 317 316 314 305 301 297 301 306 303 305 309 305 298 297
346 345 349 346 345 341 337 335 335 332 319 328 322 327 322 321 325 335 329 325 323 320 329 329 323 324 319 312 312 310 311 311 316 319 320 313 303 303 302 304 304 304 304 306 303 302 298
342 343 342 342 342 341 338 339 341 341 334 352 331 326 337 334 330 334 331 325 329 331 331 327 327 322 320 315 313 310 313 314 312 319 317 318 305 307 303 307 305 303 308 309 309 307 306
340 338 340 341 341 340 340 343 345 350 350 344 333 349 344 331 337 335 335 341 339 345 343 343 334 326 321 322 325 321 318 316 314 313 312 312 308 307 302 309 308 302 308 309 310 312 310
342 340 338 339 339 338 339 344 347 352 357 4 353 346 342 331 341 340 350 349 346 344 337 342 341 333 334 332 331 335 334 330 326 320 313 313 311 310 306 309 300 310 321 319 312 313 315
343 339 337 338 337 339 341 344 347 348 353 2 360 349 344 338 350 346 346 345 345 343 340 337 337 340 341 335 326 320 319 320 326 332 329 319 316 311 306 304 308 310 315 315 314 311 319
337 339 338 339 335 337 339 341 344 346 347 358 359 1 351 343 332 341 340 339 333 331 333 337 343 347 342 331 325 316 314 317 316 320 333 330 324 311 311 305 304 315 322 324 323 309 325
339 338 338 336 337 336 339 341 343 343 345 353 353 354 349 340 339 340 336 336 342 338 332 337 337 338 341 329 321 317 316 323 314 315 316 319 318 312 311 308 313 325 328 332 314 316 327
339 338 336 335 334 335 336 339 339 340 339 347 350 352 349 340 341 347 347 341 341 340 331 338 334 336 334 327 325 324 322 324 322 325 322 320 318 317 318 313 310 333 331 320 326 330 328
340 337 337 336 335 334 334 334 336 335 332 341 342 353 357 348 345 352 355 353 352 351 343 342 338 336 340 332 332 331 326 328 327 319 339 321 329 322 323 321 330 331 328 331 331 327 326